Year,Month,Day,Hour,Minute,Value (Times are PST for temperature in C)
2015,07,02,00,00,21.50
2015,07,02,00,01,21.50
2015,07,02,00,02,21.50
2015,07,02,00,03,21.40
2015,07,02,00,04,21.40
2015,07,02,00,05,21.40
2015,07,02,00,06,21.40
2015,07,02,00,07,21.30
2015,07,02,00,08,21.30
2015,07,02,00,09,21.30
2015,07,02,00,10,21.30
2015,07,02,00,11,21.30
2015,07,02,00,12,21.20
2015,07,02,00,13,21.20
2015,07,02,00,14,21.20
2015,07,02,00,15,21.20
2015,07,02,00,16,21.20
2015,07,02,00,17,21.10
2015,07,02,00,18,21.10
2015,07,02,00,19,21.10
2015,07,02,00,20,21.10
2015,07,02,00,21,21.10
2015,07,02,00,22,21.00
2015,07,02,00,23,21.00
2015,07,02,00,24,21.00
2015,07,02,00,25,20.90
2015,07,02,00,26,20.90
2015,07,02,00,27,20.90
2015,07,02,00,28,20.90
2015,07,02,00,29,20.90
2015,07,02,00,30,20.90
2015,07,02,00,31,20.90
2015,07,02,00,32,20.80
2015,07,02,00,33,20.80
2015,07,02,00,34,20.80
2015,07,02,00,35,20.80
2015,07,02,00,36,20.80
2015,07,02,00,37,20.80
2015,07,02,00,38,20.80
2015,07,02,00,39,20.80
2015,07,02,00,40,20.80
2015,07,02,00,41,20.80
2015,07,02,00,42,20.80
2015,07,02,00,43,20.80
2015,07,02,00,44,20.80
2015,07,02,00,45,20.70
2015,07,02,00,46,20.70
2015,07,02,00,47,20.70
2015,07,02,00,48,20.70
2015,07,02,00,49,20.70
2015,07,02,00,50,20.70
2015,07,02,00,51,20.60
2015,07,02,00,52,20.60
2015,07,02,00,53,20.50
2015,07,02,00,54,20.50
2015,07,02,00,55,20.40
2015,07,02,00,56,20.40
2015,07,02,00,57,20.40
2015,07,02,00,58,20.40
2015,07,02,00,59,20.40
2015,07,02,01,00,20.40
2015,07,02,01,01,20.40
2015,07,02,01,02,20.40
2015,07,02,01,03,20.40
2015,07,02,01,04,20.40
2015,07,02,01,05,20.30
2015,07,02,01,06,20.30
2015,07,02,01,07,20.30
2015,07,02,01,08,20.30
2015,07,02,01,09,20.30
2015,07,02,01,10,20.30
2015,07,02,01,11,20.30
2015,07,02,01,12,20.30
2015,07,02,01,13,20.20
2015,07,02,01,14,20.20
2015,07,02,01,15,20.20
2015,07,02,01,16,20.20
2015,07,02,01,17,20.20
2015,07,02,01,18,20.20
2015,07,02,01,19,20.20
2015,07,02,01,20,20.20
2015,07,02,01,21,20.20
2015,07,02,01,22,20.20
2015,07,02,01,23,20.20
2015,07,02,01,24,20.20
2015,07,02,01,25,20.20
2015,07,02,01,26,20.20
2015,07,02,01,27,20.10
2015,07,02,01,28,20.10
2015,07,02,01,29,20.10
2015,07,02,01,30,20.10
2015,07,02,01,31,20.10
2015,07,02,01,32,20.10
2015,07,02,01,33,20.10
2015,07,02,01,34,20.00
2015,07,02,01,35,20.00
2015,07,02,01,36,20.00
2015,07,02,01,37,20.00
2015,07,02,01,38,19.90
2015,07,02,01,39,19.90
2015,07,02,01,40,19.90
2015,07,02,01,41,19.90
2015,07,02,01,42,19.90
2015,07,02,01,43,19.90
2015,07,02,01,44,19.90
2015,07,02,01,45,19.80
2015,07,02,01,46,19.80
2015,07,02,01,47,19.90
2015,07,02,01,48,19.90
2015,07,02,01,49,19.90
2015,07,02,01,50,19.90
2015,07,02,01,51,19.90
2015,07,02,01,52,19.90
2015,07,02,01,53,19.90
2015,07,02,01,54,19.90
2015,07,02,01,55,19.90
2015,07,02,01,56,19.90
2015,07,02,01,57,19.90
2015,07,02,01,58,19.90
2015,07,02,01,59,19.90
2015,07,02,02,00,19.90
2015,07,02,02,01,19.90
2015,07,02,02,02,19.90
2015,07,02,02,03,19.90
2015,07,02,02,04,19.90
2015,07,02,02,05,19.80
2015,07,02,02,06,19.80
2015,07,02,02,07,19.80
2015,07,02,02,08,19.80
2015,07,02,02,09,19.80
2015,07,02,02,10,19.80
2015,07,02,02,11,19.80
2015,07,02,02,12,19.80
2015,07,02,02,13,19.80
2015,07,02,02,14,19.80
2015,07,02,02,15,19.80
2015,07,02,02,16,19.80
2015,07,02,02,17,19.80
2015,07,02,02,18,19.80
2015,07,02,02,19,19.80
2015,07,02,02,20,19.80
2015,07,02,02,21,19.70
2015,07,02,02,22,19.70
2015,07,02,02,23,19.70
2015,07,02,02,24,19.70
2015,07,02,02,25,19.70
2015,07,02,02,26,19.70
2015,07,02,02,27,19.60
2015,07,02,02,28,19.60
2015,07,02,02,29,19.60
2015,07,02,02,30,19.60
2015,07,02,02,31,19.50
2015,07,02,02,32,19.50
2015,07,02,02,33,19.50
2015,07,02,02,34,19.50
2015,07,02,02,35,19.40
2015,07,02,02,36,19.40
2015,07,02,02,37,19.40
2015,07,02,02,38,19.30
2015,07,02,02,39,19.40
2015,07,02,02,40,19.40
2015,07,02,02,41,19.40
2015,07,02,02,42,19.40
2015,07,02,02,43,19.40
2015,07,02,02,44,19.40
2015,07,02,02,45,19.50
2015,07,02,02,46,19.40
2015,07,02,02,47,19.40
2015,07,02,02,48,19.40
2015,07,02,02,49,19.40
2015,07,02,02,50,19.40
2015,07,02,02,51,19.40
2015,07,02,02,52,19.40
2015,07,02,02,53,19.40
2015,07,02,02,54,19.40
2015,07,02,02,55,19.30
2015,07,02,02,56,19.40
2015,07,02,02,57,19.30
2015,07,02,02,58,19.30
2015,07,02,02,59,19.30
2015,07,02,03,00,19.30
2015,07,02,03,01,19.30
2015,07,02,03,02,19.30
2015,07,02,03,03,19.30
2015,07,02,03,04,19.30
2015,07,02,03,05,19.30
2015,07,02,03,06,19.30
2015,07,02,03,07,19.30
2015,07,02,03,08,19.30
2015,07,02,03,09,19.30
2015,07,02,03,10,19.30
2015,07,02,03,11,19.30
2015,07,02,03,12,19.30
2015,07,02,03,13,19.30
2015,07,02,03,14,19.30
2015,07,02,03,15,19.30
2015,07,02,03,16,19.20
2015,07,02,03,17,19.20
2015,07,02,03,18,19.20
2015,07,02,03,19,19.20
2015,07,02,03,20,19.20
2015,07,02,03,21,19.20
2015,07,02,03,22,19.20
2015,07,02,03,23,19.10
2015,07,02,03,24,19.10
2015,07,02,03,25,19.10
2015,07,02,03,26,19.10
2015,07,02,03,27,19.10
2015,07,02,03,28,19.20
2015,07,02,03,29,19.20
2015,07,02,03,30,19.20
2015,07,02,03,31,19.20
2015,07,02,03,32,19.20
2015,07,02,03,33,19.20
2015,07,02,03,34,19.20
2015,07,02,03,35,19.20
2015,07,02,03,36,19.10
2015,07,02,03,37,19.10
2015,07,02,03,38,19.10
2015,07,02,03,39,19.10
2015,07,02,03,40,19.10
2015,07,02,03,41,19.10
2015,07,02,03,42,19.10
2015,07,02,03,43,19.10
2015,07,02,03,44,19.10
2015,07,02,03,45,19.10
2015,07,02,03,46,19.10
2015,07,02,03,47,19.10
2015,07,02,03,48,19.10
2015,07,02,03,49,19.10
2015,07,02,03,50,19.10
2015,07,02,03,51,19.10
2015,07,02,03,52,19.10
2015,07,02,03,53,19.10
2015,07,02,03,54,19.10
2015,07,02,03,55,19.00
2015,07,02,03,56,19.00
2015,07,02,03,57,19.00
2015,07,02,03,58,18.90
2015,07,02,03,59,18.90
2015,07,02,04,00,18.90
2015,07,02,04,01,18.90
2015,07,02,04,02,18.90
2015,07,02,04,03,18.90
2015,07,02,04,04,18.90
2015,07,02,04,05,18.80
2015,07,02,04,06,18.80
2015,07,02,04,07,18.80
2015,07,02,04,08,18.80
2015,07,02,04,09,18.80
2015,07,02,04,10,18.80
2015,07,02,04,11,18.80
2015,07,02,04,12,18.70
2015,07,02,04,13,18.70
2015,07,02,04,14,18.70
2015,07,02,04,15,18.70
2015,07,02,04,16,18.70
2015,07,02,04,17,18.70
2015,07,02,04,18,18.70
2015,07,02,04,19,18.70
2015,07,02,04,20,18.60
2015,07,02,04,21,18.60
2015,07,02,04,22,18.60
2015,07,02,04,23,18.60
2015,07,02,04,24,18.60
2015,07,02,04,25,18.60
2015,07,02,04,26,18.60
2015,07,02,04,27,18.60
2015,07,02,04,28,18.60
2015,07,02,04,29,18.60
2015,07,02,04,30,18.60
2015,07,02,04,31,18.60
2015,07,02,04,32,18.60
2015,07,02,04,33,18.60
2015,07,02,04,34,18.50
2015,07,02,04,35,18.50
2015,07,02,04,36,18.50
2015,07,02,04,37,18.50
2015,07,02,04,38,18.40
2015,07,02,04,39,18.40
2015,07,02,04,40,18.40
2015,07,02,04,41,18.40
2015,07,02,04,42,18.40
2015,07,02,04,43,18.40
2015,07,02,04,44,18.40
2015,07,02,04,45,18.40
2015,07,02,04,46,18.40
2015,07,02,04,47,18.40
2015,07,02,04,48,18.40
2015,07,02,04,49,18.40
2015,07,02,04,50,18.40
2015,07,02,04,51,18.30
2015,07,02,04,52,18.30
2015,07,02,04,53,18.30
2015,07,02,04,54,18.30
2015,07,02,04,55,18.30
2015,07,02,04,56,18.30
2015,07,02,04,57,18.30
2015,07,02,04,58,18.30
2015,07,02,04,59,18.30
2015,07,02,05,00,18.30
2015,07,02,05,01,18.30
2015,07,02,05,02,18.30
2015,07,02,05,03,18.30
2015,07,02,05,04,18.30
2015,07,02,05,05,18.30
2015,07,02,05,06,18.30
2015,07,02,05,07,18.30
2015,07,02,05,08,18.30
2015,07,02,05,09,18.20
2015,07,02,05,10,18.20
2015,07,02,05,11,18.20
2015,07,02,05,12,18.20
2015,07,02,05,13,18.20
2015,07,02,05,14,18.20
2015,07,02,05,15,18.20
2015,07,02,05,16,18.20
2015,07,02,05,17,18.20
2015,07,02,05,18,18.20
2015,07,02,05,19,18.20
2015,07,02,05,20,18.10
2015,07,02,05,21,18.10
2015,07,02,05,22,18.10
2015,07,02,05,23,18.10
2015,07,02,05,24,18.10
2015,07,02,05,25,18.10
2015,07,02,05,26,18.10
2015,07,02,05,27,18.10
2015,07,02,05,28,18.10
2015,07,02,05,29,18.10
2015,07,02,05,30,18.10
2015,07,02,05,31,18.10
2015,07,02,05,32,18.10
2015,07,02,05,33,18.10
2015,07,02,05,34,18.10
2015,07,02,05,35,18.10
2015,07,02,05,36,18.10
2015,07,02,05,37,18.10
2015,07,02,05,38,18.10
2015,07,02,05,39,18.10
2015,07,02,05,40,18.10
2015,07,02,05,41,18.10
2015,07,02,05,42,18.10
2015,07,02,05,43,18.10
2015,07,02,05,44,18.10
2015,07,02,05,45,18.10
2015,07,02,05,46,18.10
2015,07,02,05,47,18.10
2015,07,02,05,48,18.00
2015,07,02,05,49,18.00
2015,07,02,05,50,18.00
2015,07,02,05,51,18.00
2015,07,02,05,52,18.00
2015,07,02,05,53,18.00
2015,07,02,05,54,17.90
2015,07,02,05,55,17.90
2015,07,02,05,56,17.90
2015,07,02,05,57,18.00
2015,07,02,05,58,18.00
2015,07,02,05,59,18.00
2015,07,02,06,00,18.00
2015,07,02,06,01,18.00
2015,07,02,06,02,18.00
2015,07,02,06,03,18.00
2015,07,02,06,04,18.00
2015,07,02,06,05,18.00
2015,07,02,06,06,18.00
2015,07,02,06,07,18.00
2015,07,02,06,08,18.10
2015,07,02,06,09,18.10
2015,07,02,06,10,18.10
2015,07,02,06,11,18.10
2015,07,02,06,12,18.10
2015,07,02,06,13,18.10
2015,07,02,06,14,18.10
2015,07,02,06,15,18.10
2015,07,02,06,16,18.10
2015,07,02,06,17,18.10
2015,07,02,06,18,18.20
2015,07,02,06,19,18.20
2015,07,02,06,20,18.20
2015,07,02,06,21,18.20
2015,07,02,06,22,18.30
2015,07,02,06,23,18.30
2015,07,02,06,24,18.30
2015,07,02,06,25,18.30
2015,07,02,06,26,18.40
2015,07,02,06,27,18.40
2015,07,02,06,28,18.40
2015,07,02,06,29,18.50
2015,07,02,06,30,18.50
2015,07,02,06,31,18.60
2015,07,02,06,32,18.60
2015,07,02,06,33,18.70
2015,07,02,06,34,18.80
2015,07,02,06,35,18.80
2015,07,02,06,36,18.90
2015,07,02,06,37,19.00
2015,07,02,06,38,19.10
2015,07,02,06,39,19.20
2015,07,02,06,40,19.30
2015,07,02,06,41,19.40
2015,07,02,06,42,19.50
2015,07,02,06,43,19.60
2015,07,02,06,44,19.60
2015,07,02,06,45,19.70
2015,07,02,06,46,19.80
2015,07,02,06,47,19.90
2015,07,02,06,48,19.90
2015,07,02,06,49,20.00
2015,07,02,06,50,20.10
2015,07,02,06,51,20.10
2015,07,02,06,52,20.10
2015,07,02,06,53,20.20
2015,07,02,06,54,20.20
2015,07,02,06,55,20.20
2015,07,02,06,56,20.20
2015,07,02,06,57,20.30
2015,07,02,06,58,20.40
2015,07,02,06,59,20.50
2015,07,02,07,00,20.50
2015,07,02,07,01,20.50
2015,07,02,07,02,20.70
2015,07,02,07,03,20.80
2015,07,02,07,04,20.80
2015,07,02,07,05,20.90
2015,07,02,07,06,21.00
2015,07,02,07,07,21.10
2015,07,02,07,08,21.20
2015,07,02,07,09,21.30
2015,07,02,07,10,21.40
2015,07,02,07,11,21.40
2015,07,02,07,12,21.40
2015,07,02,07,13,21.50
2015,07,02,07,14,21.60
2015,07,02,07,15,21.60
2015,07,02,07,16,21.60
2015,07,02,07,17,21.70
2015,07,02,07,18,21.80
2015,07,02,07,19,21.80
2015,07,02,07,20,21.90
2015,07,02,07,21,22.00
2015,07,02,07,22,22.10
2015,07,02,07,23,22.20
2015,07,02,07,24,22.30
2015,07,02,07,25,22.40
2015,07,02,07,26,22.50
2015,07,02,07,27,22.50
2015,07,02,07,28,22.50
2015,07,02,07,29,22.40
2015,07,02,07,30,22.40
2015,07,02,07,31,22.40
2015,07,02,07,32,22.40
2015,07,02,07,33,22.40
2015,07,02,07,34,22.40
2015,07,02,07,35,22.50
2015,07,02,07,36,22.50
2015,07,02,07,37,22.60
2015,07,02,07,38,22.60
2015,07,02,07,39,22.70
2015,07,02,07,40,22.80
2015,07,02,07,41,22.80
2015,07,02,07,42,22.80
2015,07,02,07,43,22.80
2015,07,02,07,44,22.90
2015,07,02,07,45,22.90
2015,07,02,07,46,23.00
2015,07,02,07,47,23.00
2015,07,02,07,48,23.10
2015,07,02,07,49,23.10
2015,07,02,07,50,23.10
2015,07,02,07,51,23.10
2015,07,02,07,52,23.00
2015,07,02,07,53,22.90
2015,07,02,07,54,22.80
2015,07,02,07,55,22.80
2015,07,02,07,56,22.80
2015,07,02,07,57,22.80
2015,07,02,07,58,22.90
2015,07,02,07,59,22.90
2015,07,02,08,00,22.90
2015,07,02,08,01,22.80
2015,07,02,08,02,22.70
2015,07,02,08,03,22.60
2015,07,02,08,04,22.60
2015,07,02,08,05,22.50
2015,07,02,08,06,22.50
2015,07,02,08,07,22.50
2015,07,02,08,08,22.40
2015,07,02,08,09,22.50
2015,07,02,08,10,22.50
2015,07,02,08,11,22.60
2015,07,02,08,12,22.70
2015,07,02,08,13,22.80
2015,07,02,08,14,22.70
2015,07,02,08,15,22.60
2015,07,02,08,16,22.40
2015,07,02,08,17,22.20
2015,07,02,08,18,22.10
2015,07,02,08,19,22.10
2015,07,02,08,20,22.10
2015,07,02,08,21,22.20
2015,07,02,08,22,22.20
2015,07,02,08,23,22.30
2015,07,02,08,24,22.40
2015,07,02,08,25,22.50
2015,07,02,08,26,22.60
2015,07,02,08,27,22.50
2015,07,02,08,28,22.50
2015,07,02,08,29,22.50
2015,07,02,08,30,22.40
2015,07,02,08,31,22.30
2015,07,02,08,32,22.20
2015,07,02,08,33,22.00
2015,07,02,08,34,21.80
2015,07,02,08,35,21.60
2015,07,02,08,36,21.50
2015,07,02,08,37,21.40
2015,07,02,08,38,21.40
2015,07,02,08,39,21.40
2015,07,02,08,40,21.40
2015,07,02,08,41,21.40
2015,07,02,08,42,21.50
2015,07,02,08,43,21.70
2015,07,02,08,44,21.80
2015,07,02,08,45,21.80
2015,07,02,08,46,22.00
2015,07,02,08,47,22.10
2015,07,02,08,48,22.00
2015,07,02,08,49,22.00
2015,07,02,08,50,22.00
2015,07,02,08,51,21.90
2015,07,02,08,52,22.00
2015,07,02,08,53,22.00
2015,07,02,08,54,22.00
2015,07,02,08,55,21.80
2015,07,02,08,56,21.70
2015,07,02,08,57,21.60
2015,07,02,08,58,21.40
2015,07,02,08,59,21.30
2015,07,02,09,00,21.10
2015,07,02,09,01,20.90
2015,07,02,09,02,20.80
2015,07,02,09,03,20.80
2015,07,02,09,04,20.70
2015,07,02,09,05,20.60
2015,07,02,09,06,20.50
2015,07,02,09,07,20.30
2015,07,02,09,08,20.20
2015,07,02,09,09,20.30
2015,07,02,09,10,20.40
2015,07,02,09,11,20.40
2015,07,02,09,12,20.50
2015,07,02,09,13,20.50
2015,07,02,09,14,20.40
2015,07,02,09,15,20.40
2015,07,02,09,16,20.30
2015,07,02,09,17,20.30
2015,07,02,09,18,20.30
2015,07,02,09,19,20.30
2015,07,02,09,20,20.40
2015,07,02,09,21,20.40
2015,07,02,09,22,20.50
2015,07,02,09,23,20.50
2015,07,02,09,24,20.70
2015,07,02,09,25,20.80
2015,07,02,09,26,21.00
2015,07,02,09,27,21.20
2015,07,02,09,28,21.40
2015,07,02,09,29,21.60
2015,07,02,09,30,21.80
2015,07,02,09,31,22.00
2015,07,02,09,32,22.10
2015,07,02,09,33,22.40
2015,07,02,09,34,22.50
2015,07,02,09,35,22.60
2015,07,02,09,36,22.60
2015,07,02,09,37,22.70
2015,07,02,09,38,22.80
2015,07,02,09,39,23.00
2015,07,02,09,40,23.10
2015,07,02,09,41,23.20
2015,07,02,09,42,23.20
2015,07,02,09,43,23.30
2015,07,02,09,44,23.30
2015,07,02,09,45,23.40
2015,07,02,09,46,23.30
2015,07,02,09,47,23.30
2015,07,02,09,48,23.20
2015,07,02,09,49,23.20
2015,07,02,09,50,23.10
2015,07,02,09,51,23.00
2015,07,02,09,52,22.90
2015,07,02,09,53,22.70
2015,07,02,09,54,22.70
2015,07,02,09,55,22.60
2015,07,02,09,56,22.60
2015,07,02,09,57,22.50
2015,07,02,09,58,22.50
2015,07,02,09,59,22.50
2015,07,02,10,00,22.60
2015,07,02,10,01,22.80
2015,07,02,10,02,23.00
2015,07,02,10,03,23.20
2015,07,02,10,04,23.40
2015,07,02,10,05,23.60
2015,07,02,10,06,23.70
2015,07,02,10,07,23.60
2015,07,02,10,08,23.60
2015,07,02,10,09,23.70
2015,07,02,10,10,23.70
2015,07,02,10,11,23.80
2015,07,02,10,12,23.90
2015,07,02,10,13,24.00
2015,07,02,10,14,24.00
2015,07,02,10,15,23.90
2015,07,02,10,16,23.90
2015,07,02,10,17,23.90
2015,07,02,10,18,24.00
2015,07,02,10,19,24.10
2015,07,02,10,20,24.10
2015,07,02,10,21,24.10
2015,07,02,10,22,24.10
2015,07,02,10,23,24.00
2015,07,02,10,24,23.90
2015,07,02,10,25,24.00
2015,07,02,10,26,24.10
2015,07,02,10,27,24.20
2015,07,02,10,28,24.30
2015,07,02,10,29,24.30
2015,07,02,10,30,24.20
2015,07,02,10,31,24.20
2015,07,02,10,32,24.20
2015,07,02,10,33,24.10
2015,07,02,10,34,24.10
2015,07,02,10,35,24.10
2015,07,02,10,36,24.20
2015,07,02,10,37,24.20
2015,07,02,10,38,24.20
2015,07,02,10,39,24.30
2015,07,02,10,40,24.40
2015,07,02,10,41,24.40
2015,07,02,10,42,24.50
2015,07,02,10,43,24.50
2015,07,02,10,44,24.70
2015,07,02,10,45,24.70
2015,07,02,10,46,24.70
2015,07,02,10,47,24.60
2015,07,02,10,48,24.50
2015,07,02,10,49,24.40
2015,07,02,10,50,24.40
2015,07,02,10,51,24.50
2015,07,02,10,52,24.70
2015,07,02,10,53,24.80
2015,07,02,10,54,24.90
2015,07,02,10,55,25.10
2015,07,02,10,56,25.10
2015,07,02,10,57,25.10
2015,07,02,10,58,25.00
2015,07,02,10,59,25.00
2015,07,02,11,00,25.00
2015,07,02,11,01,24.90
2015,07,02,11,02,24.90
2015,07,02,11,03,24.90
2015,07,02,11,04,24.90
2015,07,02,11,05,25.00
2015,07,02,11,06,25.10
2015,07,02,11,07,25.10
2015,07,02,11,08,25.20
2015,07,02,11,09,25.20
2015,07,02,11,10,25.20
2015,07,02,11,11,25.30
2015,07,02,11,12,25.40
2015,07,02,11,13,25.60
2015,07,02,11,14,25.60
2015,07,02,11,15,25.40
2015,07,02,11,16,25.10
2015,07,02,11,17,25.10
2015,07,02,11,18,25.10
2015,07,02,11,19,25.10
2015,07,02,11,20,25.10
2015,07,02,11,21,25.20
2015,07,02,11,22,25.20
2015,07,02,11,23,25.10
2015,07,02,11,24,25.10
2015,07,02,11,25,25.10
2015,07,02,11,26,25.20
2015,07,02,11,27,25.30
2015,07,02,11,28,25.40
2015,07,02,11,29,25.50
2015,07,02,11,30,25.40
2015,07,02,11,31,25.10
2015,07,02,11,32,25.00
2015,07,02,11,33,24.80
2015,07,02,11,34,24.80
2015,07,02,11,35,24.80
2015,07,02,11,36,24.90
2015,07,02,11,37,25.00
2015,07,02,11,38,25.10
2015,07,02,11,39,25.20
2015,07,02,11,40,25.30
2015,07,02,11,41,25.30
2015,07,02,11,42,25.30
2015,07,02,11,43,25.40
2015,07,02,11,44,25.30
2015,07,02,11,45,25.30
2015,07,02,11,46,25.30
2015,07,02,11,47,25.10
2015,07,02,11,48,25.00
2015,07,02,11,49,24.80
2015,07,02,11,50,24.80
2015,07,02,11,51,24.90
2015,07,02,11,52,24.90
2015,07,02,11,53,25.00
2015,07,02,11,54,25.10
2015,07,02,11,55,25.20
2015,07,02,11,56,25.20
2015,07,02,11,57,25.20
2015,07,02,11,58,25.40
2015,07,02,11,59,25.60
2015,07,02,12,00,25.70
2015,07,02,12,01,25.70
2015,07,02,12,02,25.70
2015,07,02,12,03,25.70
2015,07,02,12,04,25.80
2015,07,02,12,05,25.90
2015,07,02,12,06,25.90
2015,07,02,12,07,25.90
2015,07,02,12,08,26.10
2015,07,02,12,09,26.20
2015,07,02,12,10,26.30
2015,07,02,12,11,26.30
2015,07,02,12,12,26.30
2015,07,02,12,13,26.40
2015,07,02,12,14,26.40
2015,07,02,12,15,26.40
2015,07,02,12,16,26.40
2015,07,02,12,17,26.50
2015,07,02,12,18,26.60
2015,07,02,12,19,26.70
2015,07,02,12,20,26.80
2015,07,02,12,21,26.60
2015,07,02,12,22,26.30
2015,07,02,12,23,26.00
2015,07,02,12,24,25.70
2015,07,02,12,25,25.60
2015,07,02,12,26,25.60
2015,07,02,12,27,25.70
2015,07,02,12,28,25.90
2015,07,02,12,29,26.00
2015,07,02,12,30,26.20
2015,07,02,12,31,26.20
2015,07,02,12,32,26.20
2015,07,02,12,33,26.30
2015,07,02,12,34,26.40
2015,07,02,12,35,26.40
2015,07,02,12,36,26.20
2015,07,02,12,37,26.00
2015,07,02,12,38,25.90
2015,07,02,12,39,25.70
2015,07,02,12,40,25.70
2015,07,02,12,41,25.80
2015,07,02,12,42,25.90
2015,07,02,12,43,26.00
2015,07,02,12,44,26.10
2015,07,02,12,45,26.20
2015,07,02,12,46,26.40
2015,07,02,12,47,26.50
2015,07,02,12,48,26.50
2015,07,02,12,49,26.50
2015,07,02,12,50,26.50
2015,07,02,12,51,26.60
2015,07,02,12,52,26.80
2015,07,02,12,53,26.90
2015,07,02,12,54,26.90
2015,07,02,12,55,26.60
2015,07,02,12,56,26.30
2015,07,02,12,57,26.20
2015,07,02,12,58,26.10
2015,07,02,12,59,26.20
2015,07,02,13,00,26.20
2015,07,02,13,01,26.20
2015,07,02,13,02,26.10
2015,07,02,13,03,26.10
2015,07,02,13,04,26.10
2015,07,02,13,05,26.10
2015,07,02,13,06,26.00
2015,07,02,13,07,26.10
2015,07,02,13,08,26.20
2015,07,02,13,09,26.40
2015,07,02,13,10,26.40
2015,07,02,13,11,26.30
2015,07,02,13,12,26.20
2015,07,02,13,13,26.10
2015,07,02,13,14,26.00
2015,07,02,13,15,26.10
2015,07,02,13,16,26.20
2015,07,02,13,17,26.30
2015,07,02,13,18,26.10
2015,07,02,13,19,25.90
2015,07,02,13,20,25.90
2015,07,02,13,21,25.90
2015,07,02,13,22,26.00
2015,07,02,13,23,26.10
2015,07,02,13,24,26.20
2015,07,02,13,25,26.30
2015,07,02,13,26,26.20
2015,07,02,13,27,26.30
2015,07,02,13,28,26.30
2015,07,02,13,29,26.20
2015,07,02,13,30,26.00
2015,07,02,13,31,25.90
2015,07,02,13,32,25.90
2015,07,02,13,33,25.90
2015,07,02,13,34,25.80
2015,07,02,13,35,25.70
2015,07,02,13,36,25.80
2015,07,02,13,37,26.00
2015,07,02,13,38,26.20
2015,07,02,13,39,26.40
2015,07,02,13,40,26.60
2015,07,02,13,41,26.80
2015,07,02,13,42,27.00
2015,07,02,13,43,27.10
2015,07,02,13,44,27.30
2015,07,02,13,45,27.20
2015,07,02,13,46,27.10
2015,07,02,13,47,27.00
2015,07,02,13,48,27.00
2015,07,02,13,49,27.00
2015,07,02,13,50,27.10
2015,07,02,13,51,27.10
2015,07,02,13,52,27.30
2015,07,02,13,53,27.40
2015,07,02,13,54,27.50
2015,07,02,13,55,27.70
2015,07,02,13,56,27.80
2015,07,02,13,57,27.90
2015,07,02,13,58,28.00
2015,07,02,13,59,28.00
2015,07,02,14,00,27.90
2015,07,02,14,01,27.70
2015,07,02,14,02,27.70
2015,07,02,14,03,27.70
2015,07,02,14,04,27.70
2015,07,02,14,05,27.70
2015,07,02,14,06,27.70
2015,07,02,14,07,27.70
2015,07,02,14,08,27.70
2015,07,02,14,09,27.80
2015,07,02,14,10,27.90
2015,07,02,14,11,28.10
2015,07,02,14,12,28.20
2015,07,02,14,13,28.20
2015,07,02,14,14,28.10
2015,07,02,14,15,28.00
2015,07,02,14,16,27.90
2015,07,02,14,17,27.80
2015,07,02,14,18,27.90
2015,07,02,14,19,27.90
2015,07,02,14,20,28.00
2015,07,02,14,21,28.10
2015,07,02,14,22,28.20
2015,07,02,14,23,28.30
2015,07,02,14,24,28.40
2015,07,02,14,25,28.50
2015,07,02,14,26,28.60
2015,07,02,14,27,28.40
2015,07,02,14,28,28.30
2015,07,02,14,29,28.30
2015,07,02,14,30,28.30
2015,07,02,14,31,28.50
2015,07,02,14,32,28.50
2015,07,02,14,33,28.50
2015,07,02,14,34,28.50
2015,07,02,14,35,28.40
2015,07,02,14,36,28.30
2015,07,02,14,37,28.40
2015,07,02,14,38,28.30
2015,07,02,14,39,28.30
2015,07,02,14,40,28.30
2015,07,02,14,41,28.20
2015,07,02,14,42,28.20
2015,07,02,14,43,28.20
2015,07,02,14,44,28.30
2015,07,02,14,45,28.30
2015,07,02,14,46,28.20
2015,07,02,14,47,28.20
2015,07,02,14,48,28.20
2015,07,02,14,49,28.20
2015,07,02,14,50,28.20
2015,07,02,14,51,28.30
2015,07,02,14,52,28.30
2015,07,02,14,53,28.30
2015,07,02,14,54,28.50
2015,07,02,14,55,28.60
2015,07,02,14,56,28.60
2015,07,02,14,57,28.60
2015,07,02,14,58,28.40
2015,07,02,14,59,28.30
2015,07,02,15,00,28.20
2015,07,02,15,01,28.10
2015,07,02,15,02,28.10
2015,07,02,15,03,28.00
2015,07,02,15,04,28.00
2015,07,02,15,05,28.00
2015,07,02,15,06,27.90
2015,07,02,15,07,27.90
2015,07,02,15,08,27.90
2015,07,02,15,09,27.80
2015,07,02,15,10,27.70
2015,07,02,15,11,27.60
2015,07,02,15,12,27.60
2015,07,02,15,13,27.60
2015,07,02,15,14,27.50
2015,07,02,15,15,27.50
2015,07,02,15,16,27.50
2015,07,02,15,17,27.40
2015,07,02,15,18,27.40
2015,07,02,15,19,27.40
2015,07,02,15,20,27.40
2015,07,02,15,21,27.40
2015,07,02,15,22,27.40
2015,07,02,15,23,27.50
2015,07,02,15,24,27.60
2015,07,02,15,25,27.60
2015,07,02,15,26,27.60
2015,07,02,15,27,27.70
2015,07,02,15,28,27.80
2015,07,02,15,29,27.80
2015,07,02,15,30,27.80
2015,07,02,15,31,27.80
2015,07,02,15,32,27.90
2015,07,02,15,33,28.00
2015,07,02,15,34,28.00
2015,07,02,15,35,28.10
2015,07,02,15,36,28.00
2015,07,02,15,37,28.00
2015,07,02,15,38,27.90
2015,07,02,15,39,27.70
2015,07,02,15,40,27.60
2015,07,02,15,41,27.60
2015,07,02,15,42,27.60
2015,07,02,15,43,27.60
2015,07,02,15,44,27.60
2015,07,02,15,45,27.60
2015,07,02,15,46,27.60
2015,07,02,15,47,27.60
2015,07,02,15,48,27.60
2015,07,02,15,49,27.80
2015,07,02,15,50,27.90
2015,07,02,15,51,28.00
2015,07,02,15,52,27.90
2015,07,02,15,53,27.70
2015,07,02,15,54,27.60
2015,07,02,15,55,27.40
2015,07,02,15,56,27.40
2015,07,02,15,57,27.40
2015,07,02,15,58,27.40
2015,07,02,15,59,27.50
2015,07,02,16,00,27.50
2015,07,02,16,01,27.60
2015,07,02,16,02,27.60
2015,07,02,16,03,27.60
2015,07,02,16,04,27.40
2015,07,02,16,05,27.30
2015,07,02,16,06,27.10
2015,07,02,16,07,27.00
2015,07,02,16,08,26.90
2015,07,02,16,09,26.90
2015,07,02,16,10,26.80
2015,07,02,16,11,26.80
2015,07,02,16,12,26.80
2015,07,02,16,13,26.80
2015,07,02,16,14,26.70
2015,07,02,16,15,26.70
2015,07,02,16,16,26.70
2015,07,02,16,17,26.70
2015,07,02,16,18,26.70
2015,07,02,16,19,26.80
2015,07,02,16,20,26.80
2015,07,02,16,21,26.90
2015,07,02,16,22,26.90
2015,07,02,16,23,26.90
2015,07,02,16,24,26.80
2015,07,02,16,25,26.80
2015,07,02,16,26,26.70
2015,07,02,16,27,26.70
2015,07,02,16,28,26.70
2015,07,02,16,29,26.70
2015,07,02,16,30,26.90
2015,07,02,16,31,27.00
2015,07,02,16,32,27.10
2015,07,02,16,33,27.30
2015,07,02,16,34,27.40
2015,07,02,16,35,27.40
2015,07,02,16,36,27.30
2015,07,02,16,37,26.90
2015,07,02,16,38,26.80
2015,07,02,16,39,26.80
2015,07,02,16,40,26.60
2015,07,02,16,41,26.60
2015,07,02,16,42,26.50
2015,07,02,16,43,26.40
2015,07,02,16,44,26.30
2015,07,02,16,45,26.30
2015,07,02,16,46,26.10
2015,07,02,16,47,26.10
2015,07,02,16,48,26.10
2015,07,02,16,49,26.20
2015,07,02,16,50,26.30
2015,07,02,16,51,26.40
2015,07,02,16,52,26.50
2015,07,02,16,53,26.60
2015,07,02,16,54,26.50
2015,07,02,16,55,26.40
2015,07,02,16,56,26.40
2015,07,02,16,57,26.50
2015,07,02,16,58,26.60
2015,07,02,16,59,26.80
2015,07,02,17,00,26.80
2015,07,02,17,01,26.80
2015,07,02,17,02,26.90
2015,07,02,17,03,26.90
2015,07,02,17,04,27.00
2015,07,02,17,05,26.80
2015,07,02,17,06,26.70
2015,07,02,17,07,26.40
2015,07,02,17,08,26.30
2015,07,02,17,09,26.20
2015,07,02,17,10,26.00
2015,07,02,17,11,25.90
2015,07,02,17,12,25.90
2015,07,02,17,13,25.90
2015,07,02,17,14,26.00
2015,07,02,17,15,26.10
2015,07,02,17,16,26.10
2015,07,02,17,17,26.30
2015,07,02,17,18,26.50
2015,07,02,17,19,26.70